CW1923 Weather Reports


Display with metric or nautical units.
time (UTC)temp
F
wind
direction
speed
MPH
gust
MPH
rain 1hr
in
rain 24hr
in
rain mn
in
humidity
%
barometer
mb
20260505053304 53 3 2.0 5.0 0.00 0.57 0.07 98 1010.8
20260505052802 53 3 2.0 5.0 0.00 0.57 0.07 98 1010.8
20260505052306 53 1 2.0 4.0 0.00 0.57 0.07 98 1010.8
20260505051303 53 359 2.0 5.0 0.00 0.57 0.07 98 1010.7
20260505050804 53 356 2.0 5.0 0.00 0.57 0.07 98 1010.7
20260505050303 53 3 2.0 5.0 0.00 0.57 0.07 98 1010.7
20260505041304 53 14 2.0 4.0 0.00 0.57 0.07 98 1010.9
20260505040802 53 12 2.0 5.0 0.00 0.57 0.07 98 1010.9
20260505040308 53 10 0.0 5.0 0.00 0.57 0.07 98 1011.0
20260505035806 53 357 0.0 4.0 0.00 0.57 0.07 98 1010.9
20260505034802 53 355 2.0 7.0 0.00 0.57 0.07 98 1011.0
20260505034303 54 353 2.0 7.0 0.00 0.57 0.07 98 1010.9
20260505033803 54 346 2.0 5.0 0.00 0.57 0.07 98 1010.9
20260505033301 54 345 2.0 5.0 0.00 0.57 0.07 98 1010.9
20260505032803 54 345 2.0 7.0 0.00 0.57 0.07 98 1010.9
20260505032300 54 343 2.0 7.0 0.00 0.57 0.07 98 1010.9
20260505031302 54 51 0.0 4.0 0.00 0.57 0.07 98 1011.0
20260505030804 54 53 2.0 5.0 0.00 0.57 0.07 98 1010.9
20260505030303 54 52 2.0 5.0 0.00 0.57 0.07 98 1010.9
20260505025304 54 58 2.0 5.0 0.00 0.57 0.07 98 1010.9
20260505024802 54 59 2.0 5.0 0.00 0.57 0.07 98 1011.0
20260505024303 54 64 0.0 5.0 0.00 0.57 0.07 98 1011.0
20260505023804 55 62 2.0 7.0 0.00 0.57 0.07 98 1011.1
20260505023304 55 89 2.0 7.0 0.00 0.57 0.07 97 1011.1
20260505022803 55 183 0.0 5.0 0.00 0.57 0.07 98 1011.1
20260505022304 55 184 0.0 4.0 0.00 0.57 0.07 98 1011.1
20260505021802 55 184 0.0 2.0 0.00 0.57 0.07 98 1011.0
20260505021301 55 184 0.0 2.0 0.00 0.57 0.07 98 1011.0
20260505020803 55 184 2.0 7.0 0.00 0.57 0.07 98 1011.0
20260505020301 55 183 2.0 7.0 0.00 0.57 0.07 97 1011.1
20260505015801 55 182 2.0 7.0 0.00 0.57 0.07 97 1011.1
20260505015303 55 180 0.0 4.0 0.00 0.57 0.07 98 1011.1
20260505014805 55 181 0.0 5.0 0.00 0.57 0.07 98 1011.0
20260505014307 56 181 0.0 5.0 0.00 0.57 0.07 97 1011.1
20260505013802 56 301 0.0 0.0 0.00 0.57 0.07 98 1011.1
20260505013302 56 301 0.0 2.0 0.00 0.57 0.07 97 1011.0
20260505012802 56 301 0.0 4.0 0.00 0.57 0.07 97 1011.1
20260505011803 56 301 0.0 7.0 0.00 0.57 0.07 98 1011.0
20260505011303 56 289 0.0 4.0 0.00 0.57 0.07 98 1011.0
20260505010803 56 289 2.0 5.0 0.00 0.57 0.07 98 1011.1
20260505010302 56 289 2.0 5.0 0.00 0.57 0.07 97 1011.2
20260505005802 56 287 0.0 5.0 0.00 0.57 0.07 97 1011.2
20260505005301 56 308 0.0 5.0 0.00 0.57 0.07 97 1011.3
20260505004804 56 307 0.0 7.0 0.00 0.57 0.07 97 1011.3
20260505004303 56 307 0.0 7.0 0.00 0.57 0.07 97 1011.4
20260505003805 56 220 0.0 2.0 0.00 0.57 0.07 97 1011.3
20260505003303 56 220 0.0 5.0 0.00 0.57 0.07 97 1011.3
20260505002801 57 217 2.0 5.0 0.01 0.57 0.07 97 1011.3
20260505002256 57 208 0.0 5.0 0.01 0.57 0.07 97 1011.3
20260505001750 57 241 0.0 0.0 0.01 0.57 0.07 97 1011.4
20260505001246 57 241 0.0 0.0 0.01 0.57 0.07 97 1011.5
20260505000747 57 241 0.0 0.0 0.01 0.57 0.07 97 1011.5
20260505000247 57 241 0.0 0.0 0.02 0.57 0.07 97 1011.5
20260504235746 57 241 0.0 0.0 0.02 0.57 0.07 97 1011.6
20260504235238 57 241 0.0 0.0 0.02 0.57 0.07 97 1011.6
20260504234738 57 241 0.0 0.0 0.02 0.57 0.07 97 1011.6
20260504234235 57 241 0.0 0.0 0.03 0.57 0.07 97 1011.6
20260504233735 57 241 0.0 0.0 0.04 0.57 0.07 97 1011.5
20260504233235 57 241 0.0 0.0 0.04 0.57 0.07 97 1011.6
20260504232231 57 241 0.0 0.0 0.04 0.57 0.06 97 1011.6
20260504231730 57 241 0.0 0.0 0.05 0.57 0.06 97 1011.6
20260504231228 57 241 0.0 0.0 0.06 0.57 0.06 97 1011.7
20260504230732 57 241 0.0 0.0 0.06 0.57 0.06 97 1011.7
20260504230226 57 241 0.0 0.0 0.06 0.56 0.06 97 1011.8
20260504225730 57 241 0.0 0.0 0.06 0.56 0.06 97 1011.8
20260504225227 57 241 0.0 0.0 0.06 0.55 0.05 97 1011.9
20260504224220 57 241 0.0 0.0 0.05 0.54 0.04 97 1011.9
20260504223719 57 241 0.0 0.0 0.04 0.54 0.03 97 1011.9
20260504223213 57 241 0.0 0.0 0.04 0.54 0.03 97 1011.9
20260504222710 57 241 0.0 0.0 0.04 0.54 0.03 97 1012.0
20260504222210 57 241 0.0 0.0 0.04 0.53 0.02 97 1012.0
20260504221704 57 241 0.0 0.0 0.03 0.52 0.02 97 1012.2
20260504221201 57 241 0.0 0.0 0.02 0.51 0.01 97 1012.1
20260504220704 57 241 0.0 0.0 0.02 0.50 0.00 97 1012.2
20260504220202 57 241 0.0 0.0 0.02 0.50 0.00 97 1012.3
20260504215703 57 241 0.0 0.0 0.01 0.50 0.50 97 1012.4
20260504215204 57 241 0.0 0.0 0.01 0.50 0.50 97 1012.3
20260504214202 57 241 0.0 0.0 0.01 0.50 0.50 97 1012.4
20260504213205 57 241 0.0 0.0 0.01 0.50 0.50 96 1012.4
20260504212159 58 241 0.0 0.0 0.01 0.49 0.49 97 1012.6
20260504211650 58 241 0.0 0.0 0.01 0.49 0.49 96 1012.6
20260504211148 58 241 0.0 0.0 0.01 0.49 0.49 96 1012.5
20260504210134 58 241 0.0 0.0 0.01 0.49 0.49 96 1012.6
20260504205629 58 241 0.0 0.0 0.01 0.49 0.49 96 1012.5
20260504205130 58 241 0.0 0.0 0.01 0.49 0.49 96 1012.5
20260504204632 58 241 0.0 0.0 0.01 0.49 0.49 96 1012.7
20260504203630 58 241 0.0 0.0 0.01 0.49 0.49 96 1012.6
20260504203131 58 241 0.0 4.0 0.01 0.49 0.49 96 1012.5
20260504202632 58 241 0.0 4.0 0.01 0.49 0.49 96 1012.5
20260504202132 58 241 0.0 2.0 0.00 0.48 0.48 96 1012.5
20260504201635 58 241 0.0 4.0 0.00 0.48 0.48 96 1012.5
20260504201129 58 241 2.0 5.0 0.00 0.48 0.48 96 1012.6
20260504200627 58 241 2.0 5.0 0.00 0.48 0.48 96 1012.6
20260504200128 58 235 2.0 7.0 0.00 0.48 0.48 96 1012.5
20260504195621 58 203 0.0 7.0 0.00 0.48 0.48 96 1012.6
20260504195122 58 147 0.0 0.0 0.00 0.48 0.48 96 1012.6
20260504194614 58 147 0.0 2.0 0.00 0.48 0.48 96 1012.5
20260504194110 58 147 0.0 2.0 0.00 0.48 0.48 96 1012.5
20260504193103 58 147 0.0 0.0 0.00 0.48 0.48 96 1012.3
20260504192605 58 147 0.0 0.0 0.00 0.48 0.48 95 1012.2
20260504192104 58 147 0.0 0.0 0.01 0.48 0.48 96 1012.3
20260504191554 58 147 0.0 0.0 0.02 0.48 0.48 95 1012.3
20260504191043 58 147 0.0 0.0 0.05 0.48 0.48 95 1012.3
20260504190545 58 147 0.0 0.0 0.07 0.48 0.48 95 1012.3
20260504190044 58 147 0.0 0.0 0.08 0.48 0.48 95 1012.3
20260504185538 58 147 0.0 2.0 0.09 0.48 0.48 95 1012.2
20260504185034 58 147 0.0 2.0 0.10 0.48 0.48 95 1012.2
20260504184533 58 147 0.0 0.0 0.11 0.48 0.48 95 1012.2
20260504182533 58 147 2.0 4.0 0.14 0.48 0.47 94 1012.2
20260504182031 58 147 2.0 4.0 0.15 0.47 0.46 94 1012.3
20260504181536 58 146 0.0 4.0 0.14 0.45 0.45 94 1012.3
20260504181036 58 146 2.0 4.0 0.15 0.43 0.43 94 1012.3
20260504175520 59 88 2.0 5.0 0.20 0.39 0.38 93 1012.4
20260504175021 59 62 0.0 2.0 0.25 0.39 0.38 93 1012.3
20260504174516 59 62 0.0 4.0 0.29 0.39 0.36 93 1012.3
20260504174016 59 62 0.0 4.0 0.32 0.37 0.35 92 1012.4
20260504173519 59 57 0.0 4.0 0.33 0.36 0.35 92 1012.2
20260504173013 60 40 0.0 4.0 0.35 0.37 0.34 92 1012.3
20260504172518 60 39 0.0 4.0 0.34 0.36 0.33 92 1012.3
20260504172006 60 30 0.0 2.0 0.32 0.35 0.31 91 1012.3
20260504171504 60 25 0.0 4.0 0.31 0.35 0.30 91 1012.4
20260504170512 60 25 2.0 5.0 0.27 0.33 0.27 89 1012.4
20260504150422 67 214 0.0 5.0 0.00 0.09 0.00 77 1012.2
20260504140906 66 157 0.0 0.0 0.00 0.09 0.00 79 1012.5
20260504130333 65 284 0.0 0.0 0.00 0.09 0.00 81 1013.0
20260504100223 60 199 0.0 0.0 0.00 0.17 0.00 95 1013.7
20260504090142 59 199 0.0 4.0 0.00 0.19 0.00 97 1013.7
20260504081624 58 185 0.0 0.0 0.00 0.24 0.00 98 1013.4
20260504081105 58 185 0.0 0.0 0.00 0.24 0.00 98 1013.3
20260504080608 58 182 0.0 0.0 0.00 0.24 0.00 98 1013.4
20260504080113 58 181 0.0 0.0 0.00 0.24 0.00 98 1013.4
20260504070117 57 177 0.0 0.0 0.00 0.24 0.00 98 1013.0